731  
ASGM40 PGUM 200310  
RWRGUM  
WEATHER ROUNDUP FOR THE MARIANAS  
NATIONAL WEATHER SERVICE TIYAN GU  
100 PM CHST WED JUN 20 2018  
 
GUZ001>004-200400-  
MARIANA ISLANDS-  
 
CITY SKY/WX TMP DP RH WIND PRES REMARKS
 
GUAM AIRPORT MOSUNNY 90 79 70 E15G23 29.93F HX 105  
ANDERSEN AFB PTSUNNY 88 77 70 E12 29.93F HX 100  
ROTA AIRPORT PTSUNNY 84 77 79 E15 29.93F HX 94  
TINIAN AP MOSUNNY 84 81 89 E12 29.92F HX 98  
SAIPAN AP MOSUNNY 88 79 74 E14 29.93F HX 102  
 

 
 
 
 
CLICK HERE TO GO TO PREVIOUS BULLETINS.

The Nexlab GU Page Main Text Page